Location: Hradec Kralove
(50.2170°N, 15.8330°E)
Time: 23:17:36
(UTC+02:00)

CAS-4B - Pass Details

Date: 27 September 2024
Orbit: 453 x 469 km, 43.0° (Epoch: 05 October)

Event Time Altitude Azimuth Distance (km) Brightness Sun altitude
Exits shadow 06:20:17 - 238° (WSW) 2,066 ? -5.8°
Reaches altitude 10° 06:21:32 10° 230° (SW) 1,620 ? -5.6°
Maximum altitude 06:24:37 25° 173° (S) 974 ? -5.1°
Drops below altitude 10° 06:27:44 10° 116° (ESE) 1,631 ? -4.6°
Sets 06:30:08 0° 103° (ESE) 2,512 ? -4.2°
